Helicity
16 -11 18 18 15 12 8 21 38 72 36 42 124 160 187 127 14 34 23 11 14 38 43 8 31 50 39 34 61 80 91 98 122 89 62 32 44 29 26 40 58 56 61 67
39 -1 11 -1 -14 -9 4 19 46 52 26 8 43 114 179 82 22 46 75 36 44 30 -1 -14 -2 23 59 66 74 74 105 115 126 103 82 58 29 13 24 15 35 49 56 63
42 7 42 22 14 8 3 11 21 10 14 12 10 28 11 9 15 39 41 65 37 62 30 -7 -6 38 42 68 91 103 114 119 126 108 87 39 -3 -39 -34 -12 -4 33 60 69
23 35 15 38 20 34 12 9 12 13 -8 -8 -19 9 48 17 28 13 21 24 32 23 -3 -14 7 37 64 81 80 101 104 114 102 117 84 70 68 43 4 -0 3 10 33 60
40 52 50 49 42 47 5 37 21 8 -11 -18 17 5 49 33 34 19 25 34 36 23 20 4 13 26 64 70 101 104 91 85 82 99 82 68 34 17 -11 -39 -23 -6 17 51
26 61 52 38 66 62 58 39 56 46 14 16 -1 3 134 16 29 37 26 27 15 -8 -9 -10 10 -0 16 49 66 76 82 59 68 73 73 67 49 17 -23 -36 -24 -8 6 23
49 60 107 113 92 86 96 78 36 19 23 6 -9 -0 82 68 89 90 85 57 36 20 14 -1 -23 -13 -14 43 64 61 64 37 50 60 53 53 38 21 13 -1 -0 -3 -5 11
56 60 79 92 107 81 69 78 67 15 3 20 -18 7 49 27 102 57 59 73 43 41 65 64 19 27 32 46 60 68 56 21 40 45 33 28 16 2 -9 -4 7 9 25 35
79 49 63 74 92 94 68 82 70 54 4 -20 13 38 19 21 32 44 60 39 52 52 52 30 71 62 46 63 61 88 69 41 53 53 29 21 12 6 -7 -1 12 15 21 27
92 76 83 78 103 135 100 74 115 109 2 -22 25 18 70 79 136 223 134 92 55 52 57 70 66 61 66 65 78 89 77 80 70 58 48 26 25 15 6 21 12 27 27 32
101 124 81 110 78 105 150 132 138 91 48 -6 -21 15 1 14 61 184 210 138 99 70 49 65 91 82 97 107 100 84 81 68 55 64 60 50 34 38 41 37 20 34 44 44
97 134 96 71 103 88 106 110 195 146 52 68 32 29 5 -47 -78 45 191 155 139 111 62 61 69 90 105 91 89 78 80 75 60 77 82 64 57 67 57 37 29 62 48 57
95 160 141 108 121 161 143 140 181 232 186 72 34 7 28 26 91 101 177 272 258 259 185 72 74 80 94 100 101 92 88 72 78 113 101 82 64 77 63 50 51 88 77 74
146 197 200 163 86 100 88 73 138 229 174 122 98 62 33 -7 -46 -55 18 14 33 163 240 139 94 97 95 105 113 107 82 99 118 125 114 83 80 90 80 74 85 116 119 131
201 220 198 165 119 122 109 95 101 157 111 144 52 20 -2 -21 -19 -0 -52 -72 -39 20 113 142 97 83 103 116 121 127 106 123 152 132 128 86 106 120 123 108 112 135 172 165
249 221 218 174 171 107 84 120 117 137 103 110 70 58 34 36 44 72 129 136 89 -11 37 75 70 98 120 129 138 125 131 147 199 162 124 130 150 160 149 146 159 187 201 213
216 258 225 130 152 196 39 142 151 171 207 229 137 143 54 55 97 134 103 60 72 81 42 76 73 88 110 196 196 185 165 210 219 194 161 164 172 173 180 193 234 230 254 293
206 231 249 168 154 41 215 203 161 130 122 146 112 41 28 34 58 13 46 107 155 188 173 145 91 74 57 113 173 209 237 243 222 201 178 198 229 203 225 253 243 276 340 333
222 218 265 283 258 162 51 153 85 41 56 92 88 67 62 85 43 47 2 70 37 93 143 187 191 154 100 102 121 149 220 247 257 223 210 217 249 264 299 277 273 327 399 413
131 242 289 322 331 196 362 304 -34 83 29 -43 165 126 140 28 -19 10 142 147 168 103 81 119 119 118 140 148 150 157 178 203 225 217 237 251 304 313 329 293 337 400 402 397
253 271 257 254 347 259 219 276 101 197 166 100 73 204 79 135 56 53 16 45 33 45 46 69 29 63 126 160 115 97 122 147 166 183 213 257 312 314 325 343 417 419 419 473
205 301 313 299 338 249 453 265 132 201 165 -274 -254 -120 -68 -24 10 32 51 35 21 9 -4 27 90 102 93 87 90 94 85 108 150 178 213 232 276 294 317 383 408 428 438 457
397 339 335 392 423 595 197 298 341 224 168 116 144 186 116 72 49 35 69 47 19 -9 -4 4 15 57 57 41 46 86 113 68 64 112 153 195 244 285 353 369 404 477 437 463
140 88 32 109 3 109 207 194 -14 -50 75 83 -33 -34 -36 52 110 76 53 131 99 97 58 34 8 19 33 13 8 17 38 33 39 57 83 135 186 234 300 344 393 415 466 494
61 -31 -71 -120 -20 47 177 94 -8 35 19 67 29 -5 59 -35 -51 -53 7 124 145 107 60 25 57 36 45 23 17 5 2 1 11 18 35 70 136 186 246 283 328 348 352 441
107 113 20 -19 -66 -36 -17 -7 -59 22 132 143 77 50 68 80 -30 -30 50 157 205 195 176 110 32 10 37 37 52 33 -4 -5 9 40 56 70 117 169 226 286 354 413 313 425
Wind_Speed
35 35 34 35 35 36 35 37 41 43 43 46 56 64 66 66 67 71 73 74 76 74 71 67 62 58 58 57 58 58 57 57 56 59 58 54 51 49 47 45 40 37 33 31
40 40 40 40 39 39 41 43 46 46 41 46 55 66 71 74 75 78 81 80 79 76 74 72 68 61 61 62 63 62 63 63 65 64 60 56 51 49 47 43 40 36 33 29
32 39 39 40 43 45 46 48 48 48 51 51 54 60 55 53 64 71 80 80 78 78 73 70 69 65 63 65 65 66 67 67 66 64 62 57 52 48 45 42 38 34 30 27
43 44 48 33 47 38 52 39 43 49 50 50 43 58 61 59 63 65 77 78 83 81 77 74 71 70 68 69 67 69 68 66 66 65 60 57 54 50 45 40 33 30 26 23
34 37 37 37 36 30 40 43 48 49 52 54 50 54 58 49 61 69 71 79 82 81 80 78 74 71 69 67 66 67 67 65 62 62 60 57 54 50 43 37 32 27 22 19
39 41 39 35 37 37 39 46 51 48 49 57 49 51 54 48 53 53 53 63 79 81 81 79 77 71 67 64 61 60 61 62 58 57 57 56 53 49 43 38 32 24 18 13
47 42 36 33 37 40 40 44 47 51 51 57 46 54 65 54 55 53 56 54 68 81 82 81 76 71 64 57 55 52 55 59 53 53 52 53 51 44 40 33 26 18 11 9
43 46 29 31 30 34 35 33 34 56 54 56 49 56 46 38 51 54 56 61 58 62 64 68 42 38 41 48 49 46 50 54 47 46 47 44 44 39 34 28 20 14 8 5
29 41 35 34 31 28 30 37 38 52 55 65 61 59 67 47 47 49 55 53 49 48 32 31 34 23 26 31 43 42 42 43 40 40 37 38 36 35 32 25 15 11 3 5
29 41 35 34 32 36 35 24 40 48 61 68 63 61 57 52 51 50 48 50 54 54 45 36 34 26 24 24 28 31 37 43 40 38 35 34 34 31 27 18 18 11 4 4
27 34 35 31 36 36 37 38 39 46 55 64 68 62 40 43 50 52 53 52 51 47 47 43 43 38 36 32 26 31 33 35 35 32 30 31 29 27 23 21 18 14 6 4
28 36 40 31 36 41 44 44 34 56 64 64 67 85 62 54 43 41 45 42 43 44 42 47 52 48 42 33 28 29 30 34 33 28 28 29 26 24 24 24 22 15 13 7
34 43 51 50 42 41 48 50 52 51 62 88 84 73 42 42 49 47 48 48 45 42 48 50 51 51 47 45 37 31 30 33 29 28 29 28 29 29 28 26 23 19 16 12
44 51 53 56 53 40 38 45 51 55 79 84 114 107 99 90 84 82 83 76 65 65 65 63 61 58 54 55 46 38 33 32 31 30 31 34 34 33 31 27 25 23 20 17
56 70 67 71 70 64 64 55 50 64 71 90 91 104 91 88 92 96 93 92 89 84 78 71 72 71 68 61 55 49 45 37 34 34 34 42 33 31 30 30 29 27 25 22
63 79 74 85 82 83 96 77 59 61 87 108 106 130 103 107 105 104 102 100 101 96 90 87 79 73 73 72 66 60 53 45 41 39 39 39 37 36 35 34 33 32 30 28
78 76 78 99 76 88 120 90 78 76 67 88 114 129 111 111 109 108 108 103 104 102 95 90 86 78 76 74 68 61 54 52 47 45 45 44 44 41 40 39 38 37 36 34
82 82 83 101 89 117 88 69 73 82 81 69 91 107 106 102 96 89 91 101 105 103 101 98 94 88 83 79 68 61 58 53 50 50 49 49 48 47 46 45 45 43 42 41
78 82 89 100 101 119 136 111 93 81 92 67 73 84 90 85 78 89 70 77 87 95 95 94 91 91 89 82 75 67 61 57 57 56 55 53 52 51 52 53 51 50 47 46
74 82 90 94 105 122 86 72 56 67 105 70 76 88 85 79 77 65 75 78 79 79 81 82 82 82 82 83 81 78 74 66 64 62 60 59 59 58 59 58 57 55 53 52
88 84 99 108 113 115 93 93 76 97 76 65 70 63 56 66 67 76 82 79 72 71 68 63 59 61 64 68 69 78 81 82 76 69 67 67 64 63 62 62 60 59 57 54
107 100 100 103 115 134 82 74 89 98 98 85 81 81 84 86 86 85 85 81 73 67 61 57 59 62 60 59 61 70 75 75 74 74 74 70 65 65 66 63 62 60 57 56
102 90 94 88 91 88 76 75 83 83 91 90 97 101 99 98 92 89 86 83 76 71 67 63 63 64 60 57 57 64 67 64 67 67 68 67 65 63 61 60 59 58 55 56
94 96 102 111 112 110 116 119 103 94 103 106 96 95 93 99 94 87 83 84 82 82 78 70 67 68 69 63 59 61 64 61 60 64 65 63 62 59 55 56 55 55 55 55
98 97 108 118 119 124 127 116 111 121 116 115 116 112 112 103 96 90 87 86 87 87 86 79 77 74 72 64 64 62 62 59 63 64 63 61 58 56 54 52 51 52 52 51
108 120 124 133 127 124 134 129 121 120 129 128 123 122 114 110 114 104 102 95 93 93 88 85 84 80 77 69 68 65 61 60 63 67 67 65 61 57 54 53 53 52 49 44
Wind_Direction
262 233 178 188 195 196 222 233 244 251 257 258 235 235 235 236 238 233 228 225 219 211 211 206 198 191 190 189 188 188 185 184 179 189 190 193 190 190 190 188 185 182 178 174
279 229 220 226 229 255 255 258 255 262 277 275 259 247 243 238 236 231 224 223 219 221 219 212 202 193 191 191 191 190 189 187 187 189 189 192 189 192 191 188 186 180 176 172
315 277 281 277 271 280 283 282 286 287 287 281 271 253 252 254 245 240 229 223 213 211 209 205 201 194 192 191 189 188 188 188 185 184 187 189 195 196 189 179 178 174 171 170
295 290 280 311 283 310 285 313 304 290 286 266 284 247 253 252 246 243 233 214 220 213 210 208 203 198 193 193 189 189 187 184 183 180 179 179 180 182 181 174 164 161 150 158
317 308 308 306 313 324 310 305 297 293 280 274 269 252 247 260 247 241 238 223 214 212 208 207 202 199 193 187 184 183 183 183 179 178 179 180 183 184 181 173 170 164 157 151
308 305 308 308 309 310 312 305 297 296 282 261 263 251 250 258 255 256 261 250 225 212 213 212 210 198 190 184 179 177 178 181 178 177 179 181 184 184 183 180 178 169 157 142
304 303 305 307 305 307 308 307 302 276 264 255 267 256 247 265 263 267 264 263 247 224 219 213 201 195 187 180 177 176 177 182 178 178 180 183 185 183 184 181 176 164 142 103
313 305 313 309 304 308 310 306 305 268 262 259 269 252 261 290 282 278 270 264 262 251 246 242 184 182 180 179 179 177 179 182 179 180 183 183 185 185 185 184 178 173 152 81
343 313 316 313 312 313 318 300 301 282 279 263 260 269 277 288 296 290 274 268 268 265 251 250 251 233 197 187 182 182 182 183 184 185 185 187 188 190 191 190 189 190 171 29
338 320 322 315 310 303 304 322 299 282 265 255 259 265 265 281 291 293 286 272 267 269 262 256 256 244 235 213 198 191 188 188 189 189 191 193 193 195 197 202 203 206 219 359
323 318 329 328 301 294 295 296 297 289 274 263 262 264 285 289 296 296 290 281 278 277 267 262 262 260 256 250 217 199 197 196 197 200 202 202 203 204 208 212 214 215 240 304
306 313 309 314 314 300 292 289 289 277 271 268 269 262 279 289 302 311 316 304 292 284 281 273 266 264 261 253 237 214 212 205 207 217 216 214 218 217 217 217 216 229 227 276
305 299 301 307 312 305 291 286 281 283 278 261 262 262 284 285 285 294 303 305 303 299 292 281 272 269 266 262 256 239 226 217 230 229 224 227 219 218 219 220 222 231 233 254
299 291 289 289 299 309 306 296 285 278 271 270 253 261 258 263 270 277 283 287 290 289 286 281 274 270 269 265 263 256 245 239 235 232 224 218 218 219 223 230 232 236 240 254
291 285 287 287 287 290 292 293 287 276 276 267 269 265 268 272 276 276 279 277 277 279 282 282 274 269 267 267 265 264 262 254 245 235 229 216 234 234 237 239 243 246 248 254
292 284 287 284 285 285 282 284 282 280 277 271 273 261 269 270 275 273 272 274 274 274 277 274 275 274 269 267 267 266 265 260 255 249 236 252 252 252 245 247 249 252 250 257
284 285 286 280 287 287 275 278 279 281 278 279 270 261 271 273 274 276 276 276 274 272 274 274 272 273 272 272 269 266 264 265 258 253 254 255 256 253 251 255 255 252 251 258
278 281 283 279 285 276 281 289 286 282 283 283 282 278 274 274 279 285 286 278 273 271 270 269 269 271 271 271 272 270 268 264 261 258 257 258 257 256 259 259 257 257 257 255
269 273 277 276 274 275 268 277 282 285 280 290 291 289 284 284 288 287 291 295 284 275 272 272 272 270 269 271 271 272 272 267 265 264 263 261 259 258 261 260 259 261 259 259
268 262 265 270 272 271 280 297 292 291 279 289 290 285 283 293 285 286 299 300 295 290 279 276 277 275 271 271 272 272 272 273 271 269 267 266 265 263 263 262 263 264 262 260
278 272 265 266 267 271 274 279 291 280 279 299 305 303 300 294 297 295 298 299 299 299 290 287 284 281 280 279 278 274 273 273 275 276 275 272 269 267 266 267 265 263 263 263
271 272 269 268 266 267 282 283 274 281 285 289 293 294 292 292 291 295 294 296 296 299 297 291 289 287 289 287 285 281 278 280 280 277 275 274 273 271 271 268 269 267 263 260
274 270 272 272 270 276 286 283 287 288 287 286 287 288 290 290 292 292 292 292 290 293 293 292 290 290 291 294 292 288 288 289 285 283 281 278 277 275 272 270 269 269 265 263
274 277 275 276 272 277 280 282 285 284 286 285 287 287 288 288 288 291 293 291 289 288 288 289 288 288 290 293 295 293 294 295 293 290 287 285 282 280 276 274 271 268 266 264
275 278 277 275 275 278 277 279 281 281 282 282 283 284 282 285 286 289 291 290 290 289 287 286 284 286 289 292 292 296 297 297 294 293 294 292 289 285 282 278 275 272 270 262
278 275 273 274 276 277 276 279 282 281 279 278 280 279 279 282 279 284 286 288 289 287 288 286 282 284 286 289 292 295 297 297 295 294 294 293 292 289 286 282 282 286 278 272